Home > Weather > Clovis > Past weeks

Flag for USA Weather for the Past 2 Weeks in Clovis, New Mexico, USA

Now
87 °F

Sunny.


Feels Like: 84 °F
Forecast: 50 / 83 °F
Wind: 20 mph from South

Location: Cannon Air Force Base / Clovis

Current Time: May 6, 2016 at 4:49:03 PM

Latest Report: May 6, 2016 at 3:58 PM


Visibility: 10 mi

Pressure: 29.75 "Hg (25.70 "Hg at 1300m altitude)

Humidity: 14%

Dew Point: 33 °F

Location of ClovisLocation

Historic Weather in Clovis — Graph

°F

Clovis Temperature Yesterday

Maximum temperature yesterday: 86 °F (at 3:58 PM)
Minimum temperature yesterday: 47 °F (at 5:58 AM)
Average temperature yesterday: 69 °F

High & Low Weather Summary for the Past Weeks

 TemperatureHumidityPressure
High86 °F (May 5, 3:58 PM)100% (Apr 24, 4:58 AM)30.28 "Hg (Apr 24, 4:58 AM)
Low35 °F (Apr 30, 5:58 AM)7% (Apr 28, 4:58 PM)29.50 "Hg (Apr 25, 5:58 PM)
Average60 °F46%29.86 "Hg
* Reported Apr 21 2:58 PM — May 6 2:58 PM, Clovis, Weather by CustomWeather, © 2016

Note: Actual official high and low records may vary slightly from our data, if they occured in-between our weather recording intervals... More about our weather records

Advertising

Clovis Weather History for the Previous 24 Hours

Scroll right to see more
 ConditionsComfort  
Time TempWeatherWind HumidityBarometerVisibility
2:58 PM
Fri, May 6
85 °FPassing clouds.29 mph16%29.78 "Hg10 mi
1:58 PM85 °FSunny.24 mph15%29.81 "Hg10 mi
12:58 PM84 °FSunny.31 mph14%29.83 "Hg10 mi
11:58 AM82 °FSunny.29 mph17%29.88 "Hg10 mi
10:58 AM76 °FPartly sunny.23 mph21%29.92 "Hg10 mi
9:58 AM73 °FOvercast.23 mph21%29.93 "Hg10 mi
8:58 AM72 °FSunny.21 mph26%29.93 "Hg10 mi
7:58 AM65 °FScattered clouds.13 mph35%29.95 "Hg7 mi
6:58 AM57 °FSunny.2 mph43%29.93 "Hg6 mi
5:58 AM55 °FPassing clouds.3 mph45%29.92 "Hg10 mi
4:58 AM54 °FClear.6 mph48%29.91 "Hg10 mi
3:58 AM55 °FClear.5 mph45%29.90 "Hg9 mi
2:58 AM55 °FClear.6 mph44%29.90 "Hg10 mi
1:58 AM59 °FClear.13 mph35%29.92 "Hg10 mi
12:58 AM60 °FClear.12 mph29%29.93 "Hg10 mi
11:58 PM
Thu, May 5
61 °FClear.12 mph28%29.93 "Hg9 mi
10:58 PM61 °FClear.9 mph29%29.92 "Hg6 mi
9:58 PM61 °FClear.10 mph28%29.93 "Hg8 mi
8:58 PM63 °FClear.10 mph26%29.92 "Hg10 mi
7:58 PM68 °FSunny.9 mph21%29.92 "Hg10 mi
6:58 PM80 °FSunny.15 mph11%29.89 "Hg10 mi
5:58 PM84 °FSunny.12 mph8%29.89 "Hg10 mi
5:02 PM86 °FSunny.15 mph7%30.04 "Hg10 mi
Weather by CustomWeather, © 2016

See weather overviewHow to use our weather pages